• In Netherlands
  • List of Countries
  • For 7 days
  • Water Temperature
  • Satellite Maps
  • Weather Map
  • Weather Widgets
  • user-avatar
    Login

    Hourly Weather Pamporovo

    Today, 21 February, Tuesday

    Time Temperature Precipitation Wind Pressure Humidity
    00:00 -8°C° 0 mm 1 mps 622 mmHg 88%
    01:00 -8°C° 0 mm 1 mps 622 mmHg 87%
    02:00 -8°C° 0 mm 1 mps 622 mmHg 85%
    03:00 -8°C° 0 mm 1 mps 621 mmHg 84%
    04:00 -8°C° 0 mm 1 mps 621 mmHg 82%
    05:00 -8°C° 0 mm 1 mps 621 mmHg 80%
    06:00 -8°C° 0 mm 1 mps 621 mmHg 77%
    07:00 -7°C° 0 mm 1 mps 622 mmHg 74%
    08:00 -4°C° 0 mm 1 mps 622 mmHg 68%
    09:00 -2°C° 0 mm 1 mps 623 mmHg 62%
    10:00 -1°C° 0 mm 1 mps 624 mmHg 56%
    11:00 +1°C° 0 mm 1 mps 624 mmHg 50%
    12:00 +2°C° 0 mm 1 mps 624 mmHg 48%
    13:00 +3°C° 0 mm 1 mps 624 mmHg 47%
    14:00 +2°C° 0 mm 2 mps 624 mmHg 47%
    15:00 +1°C° 0 mm 2 mps 623 mmHg 53%
    16:00 +1°C° 0 mm 1 mps 623 mmHg 59%
    17:00 0°C° 0 mm 1 mps 622 mmHg 65%
    18:00 -1°C° 0 mm 1 mps 621 mmHg 67%
    19:00 -3°C° 0 mm 1 mps 621 mmHg 69%
    20:00 -7°C° 0 mm 2 mps 620 mmHg 72%
    21:00 -7°C° 0 mm 2 mps 620 mmHg 69%
    22:00 -6°C° 0 mm 2 mps 621 mmHg 67%
    23:00 -6°C° 0 mm 2 mps 621 mmHg 65%

    Tomorrow, 22 February, Wednesday

    Time Temperature Precipitation Wind Pressure Humidity
    00:00 -6°C° 0.1 mm 2 mps 621 mmHg 64%
    01:00 -5°C° 0.1 mm 2 mps 621 mmHg 63%
    02:00 -5°C° 0.1 mm 2 mps 621 mmHg 63%
    03:00 -5°C° 0 mm 2 mps 621 mmHg 65%
    04:00 -5°C° 0 mm 2 mps 621 mmHg 68%
    05:00 -5°C° 0 mm 2 mps 621 mmHg 71%
    06:00 -5°C° 0 mm 2 mps 622 mmHg 72%
    07:00 -5°C° 0 mm 2 mps 622 mmHg 73%
    08:00 -5°C° 0 mm 2 mps 623 mmHg 75%
    09:00 -2°C° 0 mm 2 mps 624 mmHg 68%
    10:00 +1°C° 0 mm 2 mps 625 mmHg 62%
    11:00 +3°C° 0 mm 2 mps 626 mmHg 55%
    12:00 +4°C° 0 mm 2 mps 626 mmHg 54%
    13:00 +5°C° 0 mm 2 mps 626 mmHg 52%
    14:00 +5°C° 0 mm 2 mps 626 mmHg 51%
    15:00 +4°C° 0 mm 2 mps 626 mmHg 57%
    16:00 +4°C° 0 mm 1 mps 625 mmHg 64%
    17:00 +3°C° 0 mm 1 mps 625 mmHg 70%
    18:00 +2°C° 0 mm 1 mps 624 mmHg 74%
    19:00 0°C° 0 mm 1 mps 624 mmHg 79%
    20:00 -2°C° 0 mm 1 mps 623 mmHg 83%
    21:00 -2°C° 0 mm 1 mps 623 mmHg 83%
    22:00 -2°C° 0 mm 1 mps 623 mmHg 83%
    23:00 -2°C° 0 mm 1 mps 623 mmHg 83%

    Day after tomorrow, 23 February, Thursday

    Time Temperature Precipitation Wind Pressure Humidity
    00:00 -2°C° 0 mm 1 mps 623 mmHg 83%
    01:00 -4°C° 0 mm 2 mps 623 mmHg 83%
    02:00 -4°C° 0 mm 2 mps 623 mmHg 83%
    03:00 -5°C° 0 mm 2 mps 623 mmHg 83%
    04:00 -5°C° 0 mm 2 mps 622 mmHg 83%
    05:00 -5°C° 0 mm 2 mps 622 mmHg 83%
    06:00 -4°C° 0 mm 2 mps 622 mmHg 80%
    07:00 -4°C° 0 mm 2 mps 623 mmHg 77%
    08:00 -3°C° 0 mm 2 mps 623 mmHg 74%
    09:00 -1°C° 0 mm 2 mps 624 mmHg 68%
    10:00 +4°C° 0 mm 1 mps 625 mmHg 62%
    11:00 +6°C° 0 mm 1 mps 626 mmHg 56%
    12:00 +7°C° 0 mm 1 mps 626 mmHg 55%
    13:00 +6°C° 0 mm 2 mps 626 mmHg 54%
    14:00 +7°C° 0 mm 2 mps 626 mmHg 53%
    15:00 +6°C° 0 mm 2 mps 626 mmHg 59%
    16:00 +6°C° 0 mm 1 mps 625 mmHg 65%
    17:00 +5°C° 0 mm 1 mps 625 mmHg 72%
    18:00 +3°C° 0 mm 1 mps 624 mmHg 77%
    19:00 +1°C° 0 mm 1 mps 623 mmHg 82%
    20:00 -3°C° 0 mm 2 mps 623 mmHg 87%
    21:00 -3°C° 0 mm 2 mps 623 mmHg 87%
    22:00 -3°C° 0 mm 2 mps 623 mmHg 87%
    23:00 -3°C° 0 mm 2 mps 623 mmHg 86%

    24 February, Friday

    Time Temperature Precipitation Wind Pressure Humidity
    00:00 -3°C° 0 mm 2 mps 622 mmHg 86%
    01:00 -4°C° 0 mm 2 mps 622 mmHg 86%
    02:00 -4°C° 0 mm 2 mps 622 mmHg 86%
    03:00 -4°C° 0 mm 2 mps 621 mmHg 87%
    04:00 -4°C° 0 mm 2 mps 621 mmHg 88%
    05:00 -4°C° 0 mm 2 mps 621 mmHg 88%
    06:00 -4°C° 0 mm 2 mps 621 mmHg 87%
    07:00 -3°C° 0 mm 2 mps 621 mmHg 86%
    08:00 -3°C° 0 mm 2 mps 622 mmHg 85%
    09:00 +1°C° 0 mm 2 mps 623 mmHg 76%
    10:00 +3°C° 0 mm 2 mps 624 mmHg 68%
    11:00 +6°C° 0 mm 2 mps 625 mmHg 59%
    12:00 +6°C° 0 mm 2 mps 625 mmHg 57%
    13:00 +7°C° 0 mm 2 mps 625 mmHg 55%
    14:00 +8°C° 0 mm 2 mps 625 mmHg 53%
    15:00 +7°C° 0 mm 2 mps 624 mmHg 59%
    16:00 +6°C° 0 mm 2 mps 624 mmHg 65%
    17:00 +5°C° 0 mm 2 mps 623 mmHg 71%
    18:00 +3°C° 0 mm 2 mps 623 mmHg 76%
    19:00 +1°C° 0 mm 2 mps 622 mmHg 82%
    20:00 -2°C° 0 mm 2 mps 622 mmHg 88%
    21:00 -2°C° 0 mm 2 mps 621 mmHg 87%
    22:00 -2°C° 0 mm 2 mps 621 mmHg 87%
    23:00 -2°C° 0 mm 2 mps 621 mmHg 87%

    25 February, Saturday

    Time Temperature Precipitation Wind Pressure Humidity
    00:00 -2°C° 0 mm 2 mps 621 mmHg 87%
    01:00 -2°C° 0 mm 2 mps 621 mmHg 87%
    02:00 -2°C° 0 mm 2 mps 621 mmHg 87%
    03:00 -2°C° 0 mm 2 mps 621 mmHg 88%
    04:00 -2°C° 0 mm 2 mps 621 mmHg 88%
    05:00 -1°C° 0 mm 2 mps 622 mmHg 88%
    06:00 -1°C° 0.1 mm 2 mps 622 mmHg 88%
    07:00 -1°C° 0.1 mm 2 mps 623 mmHg 89%
    08:00 +1°C° 0.1 mm 1 mps 623 mmHg 90%
    09:00 +2°C° 0 mm 1 mps 624 mmHg 86%
    10:00 +2°C° 0 mm 2 mps 625 mmHg 82%
    11:00 +3°C° 0 mm 2 mps 626 mmHg 79%
    12:00 +3°C° 0.3 mm 2 mps 626 mmHg 80%
    13:00 +2°C° 0.3 mm 2 mps 626 mmHg 81%
    14:00 +1°C° 0.3 mm 2 mps 626 mmHg 83%
    15:00 +1°C° 0.3 mm 2 mps 627 mmHg 83%
    16:00 -1°C° 0.3 mm 2 mps 627 mmHg 83%
    17:00 -1°C° 0.3 mm 2 mps 627 mmHg 83%
    18:00 -2°C° 0 mm 2 mps 627 mmHg 86%
    19:00 -3°C° 0 mm 2 mps 627 mmHg 89%
    20:00 -2°C° 0 mm 1 mps 628 mmHg 92%
    21:00 -3°C° 0 mm 1 mps 628 mmHg 93%
    22:00 -3°C° 0 mm 1 mps 628 mmHg 93%
    23:00 -3°C° 0 mm 1 mps 628 mmHg 93%

    26 February, Sunday

    Time Temperature Precipitation Wind Pressure Humidity
    00:00 -3°C° 0 mm 1 mps 628 mmHg 93%
    01:00 -3°C° 0 mm 1 mps 628 mmHg 93%
    02:00 -3°C° 0 mm 1 mps 628 mmHg 94%
    03:00 -4°C° 0 mm 1 mps 627 mmHg 94%
    04:00 -4°C° 0 mm 1 mps 627 mmHg 95%
    05:00 -4°C° 0 mm 1 mps 627 mmHg 95%
    06:00 -4°C° 0 mm 1 mps 627 mmHg 94%
    07:00 -3°C° 0 mm 1 mps 627 mmHg 92%
    08:00 -2°C° 0 mm 1 mps 627 mmHg 91%
    09:00 0°C° 0 mm 1 mps 628 mmHg 85%
    10:00 +2°C° 0 mm 1 mps 628 mmHg 78%
    11:00 +4°C° 0 mm 1 mps 629 mmHg 72%
    12:00 +5°C° 0 mm 1 mps 629 mmHg 70%
    13:00 +6°C° 0 mm 1 mps 629 mmHg 68%
    14:00 +7°C° 0 mm 1 mps 628 mmHg 66%
    15:00 +6°C° 0 mm 1 mps 628 mmHg 70%
    16:00 +5°C° 0 mm 1 mps 627 mmHg 75%
    17:00 +5°C° 0 mm 1 mps 627 mmHg 79%
    18:00 +3°C° 0 mm 1 mps 626 mmHg 84%
    19:00 +1°C° 0 mm 1 mps 625 mmHg 89%
    20:00 -1°C° 0 mm 1 mps 624 mmHg 94%
    21:00 -1°C° 0 mm 1 mps 624 mmHg 94%
    22:00 -3°C° 0 mm 0 mps 624 mmHg 94%
    23:00 -3°C° 0 mm 0 mps 624 mmHg 94%
    Show more